Regional Weather Roundup
Issued by NWS

Home | Current Version | Previous Version | Graphics & Text | Print | Product List | Glossary On
Versions: 1 2 3 4 5 6 7 8 9 10 11 12 13 14 15 16 17 18 19 20 21 22 23 24 25 26 27 28 29 30 31 32 33 34 35 36 37 38 39 40 41 42 43 44 45 46 47 48 49 50
000
ASUS43 KBIS 280410
RWRND

NORTH DAKOTA REGIONAL WEATHER ROUNDUP
NATIONAL WEATHER SERVICE BISMARCK ND
1100 PM CDT THU AUG 27 2015

NOTE: "FAIR" INDICATES FEW OR NO CLOUDS BELOW 12,000 FEET WITH NO
SIGNIFICANT WEATHER AND/OR OBSTRUCTIONS TO VISIBILITY.


NDZ001>003-009>011-017-280500-
NORTHWEST NORTH DAKOTA

CITY           SKY/WX    TMP DP  RH WIND       PRES   REMARKS
WILLISTON      MOCLDY    74  64  71 S10       29.86F
MINOT          PTCLDY    69  62  78 SE6       29.85F
MINOT AFB      PTCLDY    65  65  99 S5        29.84F
$$

NDZ018>021-031>035-040>046-280500-
SOUTHWEST NORTH DAKOTA

CITY           SKY/WX    TMP DP  RH WIND       PRES   REMARKS
BISMARCK       MOCLDY    67  60  78 SE3       29.92S
DICKINSON      MOCLDY    66  57  72 S9        29.92S
GARRISON         N/A     70  61  73 S3        29.89S
HETTINGER ARPT PTCLDY    68  55  63 SE7       29.98R
$$

NDZ004>008-012>016-024-026-027-054-280500-
NORTHEAST NORTH DAKOTA

CITY           SKY/WX    TMP DP  RH WIND       PRES   REMARKS
GRAND FORKS    PTCLDY    64  62  93 S6        29.87F
GRND FRKS AFB  CLEAR     66  64  94 S6        29.87F
DEVILS LAKE    PTCLDY    68  61  77 S7        29.87F
$$

NDZ022-023-025-028>030-036>039-047>053-280500-
SOUTHEAST NORTH DAKOTA

CITY           SKY/WX    TMP DP  RH WIND       PRES   REMARKS
FARGO          PTCLDY    71  65  81 S9        29.91S
JAMESTOWN      CLEAR     69  67  93 S8        29.91S
$$



USA.gov is the U.S. government's official web portal to all federal, state and local government web resources and services.